TimeCDT,TemperatureF,Dew PointF,Humidity,Sea Level PressureIn,VisibilityMPH,Wind Direction,Wind SpeedMPH,Gust SpeedMPH,PrecipitationIn,Events,Conditions,WindDirDegrees,DateUTC
12:15 AM,68.0,68.0,100,29.99,1.8,Calm,Calm,-,N/A,,Mist,0,2013-07-28 05:15:00
12:35 AM,68.0,68.0,100,29.99,2.5,Calm,Calm,-,N/A,,Clear,0,2013-07-28 05:35:00
12:55 AM,67.3,67.3,100,29.99,2.0,Calm,Calm,-,N/A,,Clear,0,2013-07-28 05:55:00
1:15 AM,67.8,67.8,100,29.99,4.0,Calm,Calm,-,N/A,,Clear,0,2013-07-28 06:15:00
1:35 AM,68.0,68.0,100,29.99,2.0,Calm,Calm,-,N/A,,Clear,0,2013-07-28 06:35:00
1:55 AM,68.0,68.0,100,29.99,1.8,Calm,Calm,-,N/A,,Mist,0,2013-07-28 06:55:00
2:15 AM,67.6,67.6,100,29.99,0.8,Calm,Calm,-,N/A,,Mist,0,2013-07-28 07:15:00
2:35 AM,66.9,66.9,100,29.99,1.2,Calm,Calm,-,N/A,,Mist,0,2013-07-28 07:35:00
2:55 AM,67.1,67.1,100,29.99,2.0,Calm,Calm,-,N/A,,Clear,0,2013-07-28 07:55:00
3:15 AM,66.6,66.6,100,29.99,3.0,Calm,Calm,-,N/A,,Clear,0,2013-07-28 08:15:00
3:35 AM,66.2,66.2,100,29.99,1.2,Calm,Calm,-,N/A,,Mist,0,2013-07-28 08:35:00
3:55 AM,66.0,66.0,100,29.99,2.5,Calm,Calm,-,N/A,,Clear,0,2013-07-28 08:55:00
4:15 AM,65.7,65.7,100,29.99,2.0,Calm,Calm,-,N/A,,Clear,0,2013-07-28 09:15:00
4:35 AM,65.8,65.8,100,29.99,3.0,Calm,Calm,-,N/A,,Clear,0,2013-07-28 09:35:00
4:55 AM,64.8,64.8,100,30.00,1.8,Calm,Calm,-,N/A,,Mist,0,2013-07-28 09:55:00
5:15 AM,64.6,64.6,100,30.00,2.5,Calm,Calm,-,N/A,,Clear,0,2013-07-28 10:15:00
5:35 AM,64.8,64.8,100,30.00,1.0,Calm,Calm,-,N/A,,Mist,0,2013-07-28 10:35:00
5:55 AM,64.4,64.4,100,30.00,1.5,Calm,Calm,-,N/A,,Mist,0,2013-07-28 10:55:00
6:15 AM,64.4,64.4,100,30.01,2.5,Calm,Calm,-,N/A,,Clear,0,2013-07-28 11:15:00
6:35 AM,64.4,64.4,100,30.01,4.0,Calm,Calm,-,N/A,,Clear,0,2013-07-28 11:35:00
6:55 AM,63.9,63.9,100,30.02,2.5,Calm,Calm,-,N/A,,Clear,0,2013-07-28 11:55:00
7:15 AM,64.9,64.9,100,30.03,4.0,Calm,Calm,-,N/A,,Clear,0,2013-07-28 12:15:00
7:35 AM,66.0,66.0,100,30.04,5.0,Calm,Calm,-,N/A,,Clear,0,2013-07-28 12:35:00
7:55 AM,68.5,68.5,100,30.04,5.0,Calm,Calm,-,N/A,,Clear,0,2013-07-28 12:55:00
8:15 AM,70.3,70.3,100,30.04,7.0,Calm,Calm,-,N/A,,Clear,0,2013-07-28 13:15:00
8:35 AM,72.1,72.1,100,30.04,10.0,Calm,Calm,-,N/A,,Clear,0,2013-07-28 13:35:00
8:55 AM,74.5,74.5,100,30.06,10.0,NNE,3.5,-,N/A,,Clear,20,2013-07-28 13:55:00
9:15 AM,76.1,74.8,96,30.06,10.0,NE,3.5,-,N/A,,Clear,40,2013-07-28 14:15:00
9:35 AM,77.4,71.1,81,30.06,10.0,NNE,6.9,-,N/A,,Clear,30,2013-07-28 14:35:00
9:55 AM,77.9,69.6,76,30.06,10.0,NE,6.9,-,N/A,,Clear,40,2013-07-28 14:55:00
10:15 AM,79.7,69.8,72,30.05,10.0,ENE,6.9,-,N/A,,Clear,70,2013-07-28 15:15:00
10:35 AM,79.9,69.4,70,30.05,10.0,ENE,4.6,-,N/A,,Clear,70,2013-07-28 15:35:00
10:55 AM,81.3,69.1,66,30.05,10.0,ENE,6.9,-,N/A,,Scattered Clouds,70,2013-07-28 15:55:00
11:15 AM,81.1,69.3,67,30.06,10.0,ENE,5.8,-,N/A,,Scattered Clouds,60,2013-07-28 16:15:00
11:35 AM,81.7,67.8,63,30.06,10.0,NNE,3.5,-,N/A,,Scattered Clouds,20,2013-07-28 16:35:00
11:55 AM,82.8,67.3,59,30.06,10.0,ESE,4.6,-,N/A,,Scattered Clouds,110,2013-07-28 16:55:00
12:15 PM,83.1,67.6,59,30.05,10.0,East,3.5,-,N/A,,Scattered Clouds,80,2013-07-28 17:15:00
12:35 PM,83.3,66.9,58,30.05,10.0,ENE,4.6,-,N/A,,Scattered Clouds,60,2013-07-28 17:35:00
12:55 PM,83.8,66.7,56,30.04,10.0,SSE,3.5,-,N/A,,Scattered Clouds,160,2013-07-28 17:55:00
1:15 PM,85.1,67.3,55,30.04,10.0,ENE,5.8,-,N/A,,Scattered Clouds,70,2013-07-28 18:15:00
1:35 PM,85.5,66.9,54,30.04,10.0,ENE,5.8,-,N/A,,Clear,70,2013-07-28 18:35:00
1:55 PM,86.4,67.1,52,30.04,10.0,Calm,Calm,-,N/A,,Clear,0,2013-07-28 18:55:00
2:15 PM,84.9,66.0,53,30.03,10.0,ENE,4.6,-,N/A,,Scattered Clouds,70,2013-07-28 19:15:00
2:35 PM,84.9,66.0,53,30.03,10.0,Calm,Calm,-,N/A,,Scattered Clouds,0,2013-07-28 19:35:00
2:55 PM,86.5,66.6,51,30.03,10.0,East,6.9,-,N/A,,Scattered Clouds,90,2013-07-28 19:55:00
3:15 PM,87.8,65.7,48,30.02,10.0,ESE,5.8,-,N/A,,Scattered Clouds,120,2013-07-28 20:15:00
3:35 PM,87.3,65.1,48,30.02,10.0,ENE,4.6,-,N/A,,Scattered Clouds,70,2013-07-28 20:35:00
3:55 PM,86.7,66.9,52,30.02,10.0,ENE,3.5,-,N/A,,Scattered Clouds,60,2013-07-28 20:55:00
4:15 PM,85.3,67.5,55,30.02,10.0,Calm,Calm,-,N/A,,Scattered Clouds,0,2013-07-28 21:15:00
4:35 PM,87.6,67.5,51,30.02,10.0,ENE,5.8,-,N/A,,Clear,60,2013-07-28 21:35:00
4:55 PM,87.8,66.9,50,30.02,10.0,East,6.9,-,N/A,,Clear,90,2013-07-28 21:55:00
5:15 PM,86.9,66.6,51,30.02,10.0,NE,3.5,-,N/A,,Clear,50,2013-07-28 22:15:00
5:35 PM,86.9,67.1,52,30.02,10.0,ENE,4.6,-,N/A,,Clear,70,2013-07-28 22:35:00
5:55 PM,87.1,67.5,52,30.02,10.0,ENE,3.5,-,N/A,,Clear,60,2013-07-28 22:55:00
6:15 PM,86.9,67.5,52,30.02,10.0,East,3.5,-,N/A,,Clear,80,2013-07-28 23:15:00
6:35 PM,86.4,69.1,56,30.02,10.0,East,3.5,-,N/A,,Clear,90,2013-07-28 23:35:00
6:55 PM,85.6,68.7,57,30.01,10.0,East,3.5,-,N/A,,Clear,90,2013-07-28 23:55:00
7:15 PM,85.1,70.0,60,30.01,10.0,East,3.5,-,N/A,,Clear,90,2013-07-29 00:15:00
7:35 PM,84.0,70.9,64,30.01,10.0,East,3.5,-,N/A,,Clear,80,2013-07-29 00:35:00
7:55 PM,82.8,71.4,68,30.01,10.0,Calm,Calm,-,N/A,,Clear,0,2013-07-29 00:55:00
8:15 PM,80.1,72.9,79,30.02,10.0,Calm,Calm,-,N/A,,Clear,0,2013-07-29 01:15:00
8:35 PM,76.5,76.5,100,30.02,10.0,Calm,Calm,-,N/A,,Clear,0,2013-07-29 01:35:00
8:55 PM,77.0,76.8,99,30.02,10.0,Calm,Calm,-,N/A,,Clear,0,2013-07-29 01:55:00
9:15 PM,74.3,74.3,100,30.02,7.0,Calm,Calm,-,N/A,,Clear,0,2013-07-29 02:15:00
9:35 PM,75.7,75.7,100,30.03,10.0,Calm,Calm,-,N/A,,Clear,0,2013-07-29 02:35:00
9:55 PM,74.8,74.8,100,30.03,10.0,Calm,Calm,-,N/A,,Clear,0,2013-07-29 02:55:00
10:15 PM,76.6,73.4,90,30.04,10.0,East,4.6,-,N/A,,Clear,80,2013-07-29 03:15:00
10:35 PM,74.7,72.7,94,30.04,10.0,Calm,Calm,-,N/A,,Clear,0,2013-07-29 03:35:00
10:55 PM,72.5,72.5,100,30.05,7.0,Calm,Calm,-,N/A,,Clear,0,2013-07-29 03:55:00
11:15 PM,72.5,72.5,100,30.05,7.0,Calm,Calm,-,N/A,,Clear,0,2013-07-29 04:15:00
11:35 PM,71.6,71.6,100,30.05,5.0,Calm,Calm,-,N/A,,Clear,0,2013-07-29 04:35:00
11:55 PM,70.9,70.9,100,30.06,5.0,Calm,Calm,-,N/A,,Clear,0,2013-07-29 04:55:00